This demonstration page uses our WeatherBlox Daily Observations layout. Learn more.

Left ArrowRight Arrow

Hourly Observations for May 23, 2022

Temp ( °F °C ) Dew Point ( °F °C ) Humidity (%) Winds ( mph kmh ) Pressure ( in mb ) Visibility ( mi km ) Precip ( " mm )
12:08 am 00:08 Cloudy 63 17 57 14 83 83 ENE 7 11 30.14 1021 10 16 0.00 0.00
12:53 am 00:53 Cloudy 61 16.1 58 14.4 90 90 ENE 5 7 30.12 1020 10 16 0.00 0.00
1:53 am 01:53 Cloudy with Drizzle 61 16.1 58 14.4 90 90 Calm 30.14 1021 6 10 0.00 0.00
2:53 am 02:53 Cloudy with Drizzle 60 15.6 59 15 96 96 N 6 9 30.12 1020 3 5 0.00 0.00
3:53 am 03:53 Cloudy with Drizzle 61 16.1 60 15.6 97 97 NNE 3 6 30.09 1019 3 5 0.00 0.00
4:53 am 04:53 Cloudy with Drizzle 61 16.1 60 15.6 97 97 NNE 3 6 30.09 1019 4 6 0.00 0.00
5:41 am 05:41 Cloudy with Drizzle 61 16.1 60 15.6 97 97 ENE 5 7 30.09 1019 4 6 0.00 0.00
5:53 am 05:53 Cloudy with Drizzle 61 16.1 60 15.6 97 97 VRB 5 7 30.08 1019 5 8 0.00 0.00
6:53 am 06:53 Cloudy with Mist and Fog 62 16.7 61 16.1 96 96 VRB 3 6 30.10 1019 3 5 0.00 0.00
7:12 am 07:12 Cloudy with Drizzle 63 17 61 16 94 94 NE 5 7 30.11 1020 3 4 0.00 0.00
7:22 am 07:22 Cloudy with Drizzle 63 17 61 16 94 94 Calm 30.11 1020 2 3 0.00 0.00
7:53 am 07:53 Cloudy with Drizzle 63 17.2 61 16.1 93 93 Calm 30.11 1020 2 3 0.00 0.00
8:15 am 08:15 Cloudy with Drizzle 63 17.2 62 16.7 97 97 Calm 30.12 1020 2 3 0.00 0.00
8:53 am 08:53 Cloudy with Drizzle 63 17.2 62 16.7 97 97 E 3 6 30.11 1020 2 3 0.00 0.00
9:00 am 09:00 Cloudy with Drizzle 64 17.8 63 17.2 96 96 Calm 30.11 1020 3 5 0.00 0.00
9:15 am 09:15 Cloudy with Drizzle 64 17.8 63 17.2 96 96 ESE 6 9 30.10 1019 5 8 0.00 0.00
9:53 am 09:53 Cloudy 66 18.9 63 17.2 90 90 SSE 3 6 30.10 1019 9 14 0.00 0.00
10:18 am 10:18 Cloudy 67 19.4 62 16.7 84 84 ESE 8 13 30.10 1019 10 16 0.00 0.00
10:53 am 10:53 Cloudy 69 20.6 63 17.2 81 81 SE 10 17 30.07 1018 10 16 0.00 0.00
11:27 am 11:27 Cloudy 71 21.7 63 17.2 76 76 VRB 3 6 30.06 1018 10 16 0.00 0.00
11:53 am 11:53 Cloudy 72 22.2 63 17.2 73 73 ESE 8 13 30.05 1018 10 16 0.00 0.00
12:53 pm 12:53 Mostly Cloudy 74 23.3 63 17.2 69 69 ESE 3 6 30.03 1017 10 16 0.00 0.00
1:53 pm 13:53 Mostly Cloudy 76 24.4 64 17.8 67 67 E 9 15 29.98 1015 10 16 0.00 0.00
2:48 pm 14:48 Mostly Cloudy 77 25 64 18 65 65 ESE 9 15 29.96 1015 10 16 0.00 0.00
2:53 pm 14:53 Mostly Cloudy 77 25 64 17.8 64 64 ESE 10 17 29.96 1015 10 16 0.00 0.00
3:53 pm 15:53 Mostly Cloudy 79 26.1 64 17.8 60 60 VRB 7 11 29.93 1013 10 16 0.00 0.00
4:53 pm 16:53 Cloudy 78 25.6 64 17.8 62 62 E 8 13 29.93 1014 10 16 0.00 0.00
5:53 pm 17:53 Cloudy 78 25.6 64 17.8 62 62 E 10 17 29.91 1013 10 16 0.00 0.00
6:53 pm 18:53 Cloudy 77 25 64 17.8 64 64 E 9 15 29.90 1013 10 16 0.00 0.00
7:53 pm 19:53 Cloudy 75 23.9 64 17.8 69 69 E 10 17 29.90 1012 10 16 0.00 0.00
8:53 pm 20:53 Cloudy 73 22.8 64 17.8 74 74 E 13 20 29.91 1013 10 16 0.00 0.00
9:53 pm 21:53 Cloudy 71 21.7 63 17.2 76 76 ESE 20 31 29.90 1012 10 16 0.00 0.00
10:53 pm 22:53 Cloudy 69 20.6 62 16.7 78 78 ESE 15 24 29.89 1012 10 16 0.00 0.00
11:53 pm 23:53 Cloudy 68 20 61 16.1 78 78 ESE 21 33 29.86 1011 10 16 0.00 0.00

Powered by AerisWeather